Location: Bambrugge
(50.9212°N, 3.9299°E)
Time: 12:44:57
(UTC+00:00)

Sich 1 Rocket - Pass Details

Date: 23 May 2024
Orbit: 613 x 650 km, 82.5° (Epoch: 16 June)

Event Time Altitude Azimuth Distance (km) Brightness Sun altitude
Rises 02:30:51 0° 350° (N) 2,963 7.7 -9.3°
Reaches altitude 10° 02:33:07 10° 352° (N) 2,044 6.8 -9.1°
Maximum altitude 02:37:40 80° 80° (E) 652 3.8 -8.6°
Drops below altitude 10° 02:42:07 10° 167° (SSE) 2,004 5.8 -8.1°
Sets 02:44:20 0° 168° (SSE) 2,900 6.7 -7.9°
